| time (UTC) | temp F | wind direction | speed MPH | gust MPH | rain 1hr in | rain 24hr in | rain mn in | humidity % | barometer mb |
| 20260504221005 | 79 | 300 | 8.0 | 15.0 | 0.00 | 0.00 | 0.00 | 26 | 1002.7 |
| 20260504220506 | 79 | 26 | 6.0 | 19.0 | 0.00 | 0.00 | 0.00 | 28 | 1002.7 |
| 20260504220017 | 79 | 351 | 10.0 | 20.0 | 0.00 | 0.00 | 0.00 | 27 | 1002.6 |
| 20260504215507 | 79 | 5 | 6.0 | 20.0 | 0.00 | 0.00 | 0.00 | 28 | 1002.5 |
| 20260504215008 | 79 | 36 | 8.0 | 16.0 | 0.00 | 0.00 | 0.00 | 28 | 1002.5 |
| 20260504214516 | 79 | 2 | 8.0 | 18.0 | 0.00 | 0.00 | 0.00 | 30 | 1002.6 |
| 20260504214008 | 78 | 20 | 8.0 | 17.0 | 0.00 | 0.00 | 0.00 | 28 | 1002.6 |
| 20260504213507 | 79 | 17 | 10.0 | 16.0 | 0.00 | 0.00 | 0.00 | 29 | 1002.6 |
| 20260504213021 | 79 | 2 | 9.0 | 16.0 | 0.00 | 0.00 | 0.00 | 29 | 1002.6 |
| 20260504212513 | 79 | 318 | 9.0 | 16.0 | 0.00 | 0.00 | 0.00 | 30 | 1002.5 |
| 20260504212008 | 79 | 356 | 8.0 | 16.0 | 0.00 | 0.00 | 0.00 | 30 | 1002.5 |
| 20260504211532 | 79 | 19 | 10.0 | 20.0 | 0.00 | 0.00 | 0.00 | 30 | 1002.4 |
| 20260504211004 | 79 | 48 | 10.0 | 20.0 | 0.00 | 0.00 | 0.00 | 30 | 1002.4 |
| 20260504210504 | 80 | 359 | 8.0 | 19.0 | 0.00 | 0.00 | 0.00 | 32 | 1002.4 |
| 20260504210014 | 80 | 331 | 9.0 | 14.0 | 0.00 | 0.00 | 0.00 | 31 | 1002.3 |
| 20260504205507 | 80 | 9 | 4.0 | 16.0 | 0.00 | 0.00 | 0.00 | 31 | 1002.4 |
| 20260504205005 | 80 | 60 | 10.0 | 16.0 | 0.00 | 0.00 | 0.00 | 32 | 1002.3 |
| 20260504204533 | 80 | 50 | 8.0 | 15.0 | 0.00 | 0.00 | 0.00 | 32 | 1002.2 |
| 20260504204011 | 80 | 38 | 7.0 | 20.0 | 0.00 | 0.00 | 0.00 | 31 | 1002.2 |
| 20260504203508 | 80 | 345 | 10.0 | 20.0 | 0.00 | 0.00 | 0.00 | 32 | 1002.2 |
| 20260504203026 | 80 | 306 | 7.0 | 14.0 | 0.00 | 0.00 | 0.00 | 31 | 1002.3 |
| 20260504202506 | 80 | 1 | 7.0 | 16.0 | 0.00 | 0.00 | 0.00 | 32 | 1002.2 |
| 20260504202011 | 80 | 260 | 11.0 | 23.0 | 0.00 | 0.00 | 0.00 | 31 | 1002.2 |
| 20260504201520 | 81 | 308 | 12.0 | 23.0 | 0.00 | 0.00 | 0.00 | 32 | 1002.2 |
| 20260504201006 | 81 | 321 | 8.0 | 17.0 | 0.00 | 0.00 | 0.00 | 31 | 1002.1 |
| 20260504200510 | 80 | 331 | 10.0 | 17.0 | 0.00 | 0.00 | 0.00 | 31 | 1002.2 |
| 20260504200018 | 80 | 296 | 10.0 | 15.0 | 0.00 | 0.00 | 0.00 | 30 | 1002.2 |
| 20260504195503 | 80 | 352 | 9.0 | 13.0 | 0.00 | 0.00 | 0.00 | 30 | 1002.1 |
| 20260504195004 | 80 | 34 | 7.0 | 19.0 | 0.00 | 0.00 | 0.00 | 30 | 1002.2 |
| 20260504194515 | 80 | 96 | 10.0 | 20.0 | 0.00 | 0.00 | 0.00 | 30 | 1002.1 |
| 20260504194008 | 80 | 325 | 10.0 | 20.0 | 0.00 | 0.00 | 0.00 | 30 | 1002.1 |
| 20260504193509 | 81 | 348 | 10.0 | 17.0 | 0.00 | 0.00 | 0.00 | 30 | 1001.9 |
| 20260504193012 | 81 | 36 | 7.0 | 15.0 | 0.00 | 0.00 | 0.00 | 30 | 1001.9 |
| 20260504192510 | 81 | 360 | 8.0 | 17.0 | 0.00 | 0.00 | 0.00 | 30 | 1001.8 |
| 20260504192007 | 82 | 307 | 6.0 | 17.0 | 0.00 | 0.00 | 0.00 | 27 | 1001.9 |
| 20260504191525 | 81 | 327 | 10.0 | 15.0 | 0.00 | 0.00 | 0.00 | 29 | 1001.8 |
| 20260504191010 | 81 | 346 | 6.0 | 19.0 | 0.00 | 0.00 | 0.00 | 29 | 1001.8 |
| 20260504190507 | 82 | 337 | 8.0 | 19.0 | 0.00 | 0.00 | 0.00 | 27 | 1001.8 |
| 20260504190027 | 81 | 298 | 6.0 | 19.0 | 0.00 | 0.00 | 0.00 | 29 | 1001.6 |
| 20260504185508 | 81 | 341 | 6.0 | 19.0 | 0.00 | 0.00 | 0.00 | 28 | 1001.6 |
| 20260504185008 | 81 | 334 | 10.0 | 18.0 | 0.00 | 0.00 | 0.00 | 27 | 1001.6 |
| 20260504184514 | 81 | 354 | 9.0 | 18.0 | 0.00 | 0.00 | 0.00 | 28 | 1001.5 |
| 20260504184007 | 81 | 350 | 7.0 | 15.0 | 0.00 | 0.00 | 0.00 | 29 | 1001.5 |
| 20260504183509 | 81 | 304 | 6.0 | 17.0 | 0.00 | 0.00 | 0.00 | 28 | 1001.5 |
| 20260504183022 | 81 | 290 | 6.0 | 17.0 | 0.00 | 0.00 | 0.00 | 28 | 1001.6 |
| 20260504182504 | 81 | 302 | 11.0 | 18.0 | 0.00 | 0.00 | 0.00 | 27 | 1001.7 |
| 20260504182009 | 81 | 306 | 7.0 | 18.0 | 0.00 | 0.00 | 0.00 | 28 | 1001.7 |
| 20260504181523 | 81 | 310 | 9.0 | 18.0 | 0.00 | 0.00 | 0.00 | 28 | 1001.8 |
| 20260504181008 | 81 | 302 | 8.0 | 18.0 | 0.00 | 0.00 | 0.00 | 29 | 1001.7 |
| 20260504180510 | 81 | 318 | 8.0 | 18.0 | 0.00 | 0.00 | 0.00 | 27 | 1001.9 |
| 20260504180022 | 80 | 290 | 11.0 | 18.0 | 0.00 | 0.00 | 0.00 | 27 | 1001.9 |
| 20260504175508 | 81 | 19 | 9.0 | 15.0 | 0.00 | 0.00 | 0.00 | 28 | 1002.1 |
| 20260504175008 | 81 | 290 | 6.0 | 14.0 | 0.00 | 0.00 | 0.00 | 28 | 1002.1 |
| 20260504174518 | 81 | 318 | 4.0 | 12.0 | 0.00 | 0.00 | 0.00 | 31 | 1002.1 |
| 20260504174013 | 80 | 17 | 3.0 | 14.0 | 0.00 | 0.00 | 0.00 | 34 | 1002.2 |
| 20260504173504 | 80 | 17 | 7.0 | 14.0 | 0.00 | 0.00 | 0.00 | 32 | 1002.1 |
| 20260504173016 | 80 | 8 | 4.0 | 13.0 | 0.00 | 0.00 | 0.00 | 32 | 1002.2 |
| 20260504172508 | 79 | 26 | 7.0 | 12.0 | 0.00 | 0.00 | 0.00 | 33 | 1002.2 |
| 20260504172011 | 79 | 311 | 4.0 | 9.0 | 0.00 | 0.00 | 0.00 | 32 | 1002.3 |
| 20260504171520 | 78 | 331 | 3.0 | 13.0 | 0.00 | 0.00 | 0.00 | 34 | 1002.3 |
| 20260504171015 | 78 | 341 | 4.0 | 13.0 | 0.00 | 0.00 | 0.00 | 35 | 1002.4 |
| 20260504170507 | 78 | 334 | 7.0 | 12.0 | 0.00 | 0.00 | 0.00 | 36 | 1002.6 |
| 20260504151013 | 70 | 4.0 | 8.0 | 0.00 | 0.00 | 0.00 | 42 | 1002.5 | |
| 20260504150508 | 69 | 2.0 | 6.0 | 0.00 | 0.00 | 0.00 | 41 | 1002.5 | |
| 20260504141009 | 65 | 313 | 4.0 | 7.0 | 0.00 | 0.00 | 0.00 | 52 | 1002.9 |
| 20260504140507 | 65 | 2.0 | 5.0 | 0.00 | 0.00 | 0.00 | 53 | 1003.0 | |
| 20260504130507 | 57 | 0.0 | 2.0 | 0.00 | 0.00 | 0.00 | 66 | 1002.6 | |
| 20260504110504 | 47 | 168 | 0.0 | 0.0 | 0.00 | 0.00 | 0.00 | 80 | 1002.4 |
| 20260504100502 | 47 | 168 | 0.0 | 0.0 | 0.00 | 0.00 | 0.00 | 77 | 1002.6 |
| 20260504082004 | 50 | 168 | 0.0 | 0.0 | 0.00 | 0.00 | 0.00 | 72 | 1003.9 |
| 20260504081503 | 50 | 168 | 0.0 | 0.0 | 0.00 | 0.00 | 0.00 | 71 | 1004.0 |
| 20260504081003 | 50 | 168 | 0.0 | 1.0 | 0.00 | 0.00 | 0.00 | 71 | 1004.2 |
| 20260504080502 | 50 | 168 | 0.0 | 1.0 | 0.00 | 0.00 | 0.00 | 70 | 1004.1 |
| 20260504050504 | 56 | 157 | 2.0 | 3.0 | 0.00 | 0.00 | 0.00 | 61 | 1006.8 |
| 20260504050020 | 56 | 181 | 1.0 | 1.0 | 0.00 | 0.00 | 0.00 | 60 | 1006.8 |
| 20260504045504 | 56 | 181 | 1.0 | 1.0 | 0.00 | 0.00 | 0.00 | 59 | 1006.8 |
| 20260504045004 | 57 | 181 | 1.0 | 1.0 | 0.00 | 0.00 | 0.00 | 59 | 1006.9 |
| 20260504044524 | 57 | 181 | 1.0 | 2.0 | 0.00 | 0.00 | 0.00 | 58 | 1006.9 |
| 20260504044005 | 57 | 181 | 0.0 | 2.0 | 0.00 | 0.00 | 0.00 | 57 | 1007.0 |
| 20260504043504 | 58 | 181 | 0.0 | 2.0 | 0.00 | 0.00 | 0.00 | 57 | 1007.1 |
| 20260504043010 | 58 | 181 | 1.0 | 2.0 | 0.00 | 0.00 | 0.00 | 56 | 1007.1 |
| 20260504042502 | 58 | 181 | 2.0 | 2.0 | 0.00 | 0.00 | 0.00 | 56 | 1007.1 |
| 20260504042003 | 58 | 181 | 2.0 | 2.0 | 0.00 | 0.00 | 0.00 | 56 | 1007.1 |
| 20260504041515 | 58 | 181 | 1.0 | 3.0 | 0.00 | 0.00 | 0.00 | 55 | 1007.3 |
| 20260504041004 | 59 | 181 | 1.0 | 3.0 | 0.00 | 0.00 | 0.00 | 54 | 1007.3 |
| 20260504040503 | 59 | 181 | 2.0 | 2.0 | 0.00 | 0.00 | 0.00 | 53 | 1007.3 |
| 20260504040017 | 59 | 181 | 0.0 | 2.0 | 0.00 | 0.00 | 0.00 | 53 | 1007.4 |
| 20260504035505 | 60 | 181 | 0.0 | 1.0 | 0.00 | 0.00 | 0.00 | 53 | 1007.4 |
| 20260504035004 | 60 | 181 | 0.0 | 2.0 | 0.00 | 0.00 | 0.00 | 52 | 1007.5 |
| 20260504034512 | 60 | 181 | 1.0 | 3.0 | 0.00 | 0.00 | 0.00 | 52 | 1007.5 |
| 20260504034005 | 60 | 181 | 2.0 | 3.0 | 0.00 | 0.00 | 0.00 | 52 | 1007.6 |
| 20260504033504 | 60 | 179 | 2.0 | 3.0 | 0.00 | 0.00 | 0.00 | 52 | 1007.6 |
| 20260504033010 | 60 | 174 | 2.0 | 3.0 | 0.00 | 0.00 | 0.00 | 51 | 1007.6 |
| 20260504032504 | 60 | 224 | 1.0 | 2.0 | 0.00 | 0.00 | 0.00 | 49 | 1007.6 |
| 20260504032006 | 61 | 224 | 0.0 | 0.0 | 0.00 | 0.00 | 0.00 | 49 | 1007.6 |
| 20260504031510 | 61 | 224 | 0.0 | 0.0 | 0.00 | 0.00 | 0.00 | 49 | 1007.7 |
| 20260504031003 | 61 | 224 | 0.0 | 0.0 | 0.00 | 0.00 | 0.00 | 48 | 1007.7 |
| 20260504030504 | 62 | 224 | 0.0 | 0.0 | 0.00 | 0.00 | 0.00 | 49 | 1007.7 |
| 20260504030021 | 62 | 224 | 0.0 | 0.0 | 0.00 | 0.00 | 0.00 | 47 | 1007.8 |
| 20260504025507 | 62 | 224 | 0.0 | 0.0 | 0.00 | 0.00 | 0.00 | 45 | 1007.8 |
| 20260504025004 | 63 | 224 | 0.0 | 0.0 | 0.00 | 0.00 | 0.00 | 45 | 1007.7 |
| 20260504024515 | 63 | 224 | 0.0 | 1.0 | 0.00 | 0.00 | 0.00 | 46 | 1007.7 |
| 20260504024004 | 63 | 224 | 0.0 | 0.0 | 0.00 | 0.00 | 0.00 | 45 | 1007.8 |
| 20260504023505 | 63 | 224 | 0.0 | 2.0 | 0.00 | 0.00 | 0.00 | 45 | 1007.9 |
| 20260504023016 | 63 | 224 | 0.0 | 2.0 | 0.00 | 0.00 | 0.00 | 44 | 1007.9 |
| 20260504022506 | 64 | 224 | 0.0 | 2.0 | 0.00 | 0.00 | 0.00 | 43 | 1007.9 |
| 20260504022005 | 64 | 224 | 0.0 | 2.0 | 0.00 | 0.00 | 0.00 | 43 | 1007.9 |
| 20260504021516 | 64 | 224 | 0.0 | 2.0 | 0.00 | 0.00 | 0.00 | 42 | 1008.0 |
| 20260504021005 | 65 | 224 | 0.0 | 2.0 | 0.00 | 0.00 | 0.00 | 42 | 1008.1 |
| 20260504020505 | 65 | 224 | 1.0 | 2.0 | 0.00 | 0.00 | 0.00 | 42 | 1008.1 |
| 20260504020017 | 65 | 224 | 1.0 | 4.0 | 0.00 | 0.00 | 0.00 | 41 | 1008.2 |
| 20260504015504 | 66 | 234 | 1.0 | 4.0 | 0.00 | 0.00 | 0.00 | 40 | 1008.1 |
| 20260504015008 | 66 | 246 | 1.0 | 4.0 | 0.00 | 0.00 | 0.00 | 39 | 1008.1 |
| 20260504014516 | 66 | 233 | 0.0 | 2.0 | 0.00 | 0.00 | 0.00 | 39 | 1008.1 |
| 20260504014004 | 67 | 231 | 0.0 | 2.0 | 0.00 | 0.00 | 0.00 | 39 | 1008.0 |
| 20260504013504 | 67 | 230 | 0.0 | 2.0 | 0.00 | 0.00 | 0.00 | 38 | 1008.1 |
| 20260504013014 | 68 | 230 | 0.0 | 2.0 | 0.00 | 0.00 | 0.00 | 38 | 1008.1 |
| 20260504012509 | 68 | 214 | 0.0 | 3.0 | 0.00 | 0.00 | 0.00 | 38 | 1008.2 |
| 20260504012006 | 69 | 236 | 0.0 | 3.0 | 0.00 | 0.00 | 0.00 | 36 | 1008.3 |
| 20260504011510 | 69 | 240 | 0.0 | 2.0 | 0.00 | 0.00 | 0.00 | 36 | 1008.3 |
| 20260504011009 | 70 | 240 | 0.0 | 4.0 | 0.00 | 0.00 | 0.00 | 35 | 1008.4 |
| 20260504010507 | 70 | 238 | 0.0 | 4.0 | 0.00 | 0.00 | 0.00 | 35 | 1008.4 |
| 20260504010010 | 70 | 231 | 1.0 | 4.0 | 0.00 | 0.00 | 0.00 | 35 | 1008.5 |
| 20260504005504 | 71 | 231 | 1.0 | 4.0 | 0.00 | 0.00 | 0.00 | 35 | 1008.5 |
| 20260504005005 | 71 | 241 | 2.0 | 4.0 | 0.00 | 0.00 | 0.00 | 33 | 1008.5 |
| 20260504004517 | 71 | 214 | 1.0 | 3.0 | 0.00 | 0.00 | 0.00 | 33 | 1008.5 |
| 20260504004008 | 72 | 184 | 0.0 | 5.0 | 0.00 | 0.00 | 0.00 | 33 | 1008.6 |
| 20260504003505 | 72 | 252 | 0.0 | 5.0 | 0.00 | 0.00 | 0.00 | 32 | 1008.6 |
| 20260504003018 | 72 | 230 | 1.0 | 5.0 | 0.00 | 0.00 | 0.00 | 32 | 1008.5 |
| 20260504002504 | 72 | 209 | 0.0 | 6.0 | 0.00 | 0.00 | 0.00 | 32 | 1008.5 |
| 20260504002007 | 73 | 205 | 1.0 | 9.0 | 0.00 | 0.00 | 0.00 | 31 | 1008.5 |
| 20260504001519 | 73 | 233 | 3.0 | 9.0 | 0.00 | 0.00 | 0.00 | 31 | 1008.7 |
| 20260504001008 | 74 | 235 | 2.0 | 9.0 | 0.00 | 0.00 | 0.00 | 30 | 1008.7 |
| 20260504000511 | 74 | 220 | 4.0 | 9.0 | 0.00 | 0.00 | 0.00 | 30 | 1008.7 |
| 20260504000019 | 74 | 235 | 4.0 | 9.0 | 0.00 | 0.00 | 0.00 | 30 | 1008.7 |
| 20260503235507 | 74 | 260 | 3.0 | 9.0 | 0.00 | 0.00 | 0.00 | 30 | 1008.8 |
| 20260503235006 | 75 | 248 | 3.0 | 9.0 | 0.00 | 0.00 | 0.00 | 30 | 1008.8 |
| 20260503234527 | 75 | 227 | 4.0 | 9.0 | 0.00 | 0.00 | 0.00 | 30 | 1008.8 |
| 20260503234003 | 75 | 252 | 3.0 | 6.0 | 0.00 | 0.00 | 0.00 | 29 | 1008.8 |
| 20260503233505 | 75 | 184 | 2.0 | 6.0 | 0.00 | 0.00 | 0.00 | 30 | 1009.0 |
| 20260503233016 | 75 | 142 | 2.0 | 6.0 | 0.00 | 0.00 | 0.00 | 31 | 1009.0 |
| 20260503232504 | 76 | 215 | 2.0 | 5.0 | 0.00 | 0.00 | 0.00 | 30 | 1009.1 |
| 20260503232006 | 75 | 172 | 2.0 | 4.0 | 0.00 | 0.00 | 0.00 | 31 | 1009.1 |
| 20260503231519 | 75 | 252 | 2.0 | 4.0 | 0.00 | 0.00 | 0.00 | 30 | 1009.1 |
| 20260503231004 | 75 | 163 | 1.0 | 4.0 | 0.00 | 0.00 | 0.00 | 31 | 1009.2 |
| 20260503230504 | 75 | 161 | 1.0 | 4.0 | 0.00 | 0.00 | 0.00 | 33 | 1009.0 |
| 20260503230006 | 76 | 92 | 1.0 | 3.0 | 0.00 | 0.00 | 0.00 | 30 | 1009.0 |
| 20260503225506 | 76 | 276 | 2.0 | 4.0 | 0.00 | 0.00 | 0.00 | 29 | 1009.2 |
| 20260503225004 | 76 | 56 | 0.0 | 5.0 | 0.00 | 0.00 | 0.00 | 28 | 1009.2 |
| 20260503224510 | 77 | 51 | 3.0 | 5.0 | 0.00 | 0.00 | 0.00 | 28 | 1009.2 |
| 20260503224007 | 77 | 299 | 1.0 | 6.0 | 0.00 | 0.00 | 0.00 | 28 | 1009.2 |
| 20260503223509 | 77 | 316 | 2.0 | 6.0 | 0.00 | 0.00 | 0.00 | 27 | 1009.3 |
| 20260503223005 | 77 | 238 | 3.0 | 5.0 | 0.00 | 0.00 | 0.00 | 28 | 1009.2 |
| 20260503222507 | 77 | 309 | 1.0 | 5.0 | 0.00 | 0.00 | 0.00 | 32 | 1009.2 |
| 20260503222004 | 76 | 269 | 2.0 | 7.0 | 0.00 | 0.00 | 0.00 | 30 | 1009.2 |
| 20260503221522 | 76 | 235 | 1.0 | 7.0 | 0.00 | 0.00 | 0.00 | 30 | 1009.1 |